Weather History for PAPH - January, 2012

Change the Weather History Date:

Tuesday, January 17, 2012

  Actual Average Record
Temperature  
Mean Temperature 0 °F -  
Max Temperature 8 °F 30 °F 44 °F (2014)
Min Temperature -9 °F 20 °F -9 °F (2012)
Degree Days  
Heating Degree Days 66    
Moisture  
Dew Point -7 °F    
Average Humidity 76    
Maximum Humidity 100    
Minimum Humidity 55    
Precipitation  
Precipitation 0.00 in - - ()
Sea Level Pressure  
Sea Level Pressure 30.45 in    
Wind  
Wind Speed 17 mph (NE)    
Max Wind Speed 23 mph    
Max Gust Speed 23 mph    
Visibility 10 miles    
Events      
Averages and records for this station are not official NWS values.
T = Trace of Precipitation, MM = Missing Value Source: NWS Daily Summary

Daily Weather History Graph

Daily Weather History Graph

Search for Another Location

Airport or City:

Trip Planner

Search our weather history database for the weather conditions in past years. The results will help you decide how hot, cold, wet, or windy it might be!

Date:

Astronomy

Jan. 17, 2012 Rise Set
Actual Time 9:59 AM AKST 5:30 PM AKST
Civil Twilight 9:13 AM AKST 6:16 PM AKST
Nautical Twilight 8:24 AM AKST 7:04 PM AKST
Astronomical Twilight 7:39 AM AKST 7:50 PM AKST
Moon 4:27 AM AKST (1/17) 12:33 PM AKST (1/17)
Length of Visible Light 9h 03m
Length of Day
7h 31m
Waning Crescent, 33% of the Moon is Illuminated
Jan 17
Waning Crescent
Jan 22
New
Jan 30
First Quarter
Feb 7
Full
Feb 14
Last Quarter

Hourly Weather History & Observations

Time (AKST) Temp. Windchill Dew Point Humidity Pressure Visibility Wind Dir Wind Speed Gust Speed Precip Events Conditions
12:36 AM 8.6 °F -9.5 °F 6.8 °F 92% 30.69 in 10.0 mi NE 17.3 mph - N/A   Overcast
12:56 AM 8.6 °F -9.5 °F 3.2 °F 79% 30.69 in 10.0 mi NE 17.3 mph - N/A   Overcast
1:16 AM 8.6 °F -9.5 °F 1.4 °F 73% 30.68 in 10.0 mi NE 17.3 mph - N/A   Overcast
1:36 AM 8.6 °F -8.9 °F -2.2 °F 62% 30.67 in 10.0 mi NE 16.1 mph - N/A   Overcast
1:56 AM 8.6 °F -8.3 °F 3.2 °F 79% 30.66 in 10.0 mi NE 15.0 mph - N/A   Overcast
2:16 AM 8.6 °F -9.5 °F 1.4 °F 73% 30.66 in 10.0 mi NE 17.3 mph 21.9 mph N/A   Overcast
3:36 AM 6.8 °F -12.4 °F -2.2 °F 67% 30.64 in 10.0 mi NE 18.4 mph - N/A   Overcast
3:56 AM 5.0 °F -14.7 °F -4.0 °F 66% 30.62 in 10.0 mi NE 18.4 mph - N/A   Mostly Cloudy
4:16 AM 5.0 °F -14.7 °F 1.4 °F 85% 30.61 in 10.0 mi NE 18.4 mph - N/A   Overcast
4:36 AM 5.0 °F -15.2 °F -2.2 °F 72% 30.60 in 10.0 mi ENE 19.6 mph - N/A   Overcast
4:56 AM 5.0 °F -15.2 °F -0.4 °F 78% 30.59 in 10.0 mi ENE 19.6 mph - N/A   Overcast
5:16 AM 5.0 °F -14.2 °F 1.4 °F 85% 30.58 in 10.0 mi ENE 17.3 mph - N/A   Overcast
5:36 AM 5.0 °F -14.2 °F -4.0 °F 66% 30.58 in 10.0 mi NE 17.3 mph - N/A   Overcast
5:56 AM 5.0 °F -15.2 °F -2.2 °F 72% 30.57 in 10.0 mi NE 19.6 mph - N/A   Overcast
6:16 AM 5.0 °F -15.2 °F -0.4 °F 78% 30.56 in 10.0 mi NE 19.6 mph - N/A   Overcast
6:36 AM 5.0 °F -14.7 °F -5.8 °F 61% 30.56 in 10.0 mi NE 18.4 mph - N/A   Overcast
6:56 AM 5.0 °F -14.7 °F -0.4 °F 78% 30.55 in 10.0 mi NE 18.4 mph - N/A   Overcast
7:16 AM 3.2 °F -17.1 °F -2.2 °F 78% 30.55 in 10.0 mi NE 18.4 mph 23.0 mph N/A   Overcast
7:36 AM 3.2 °F -17.1 °F -2.2 °F 78% 30.55 in 10.0 mi NE 18.4 mph - N/A   Overcast
7:56 AM 1.4 °F -19.9 °F -5.8 °F 72% 30.54 in 10.0 mi NE 19.6 mph - N/A   Mostly Cloudy
8:16 AM -0.4 °F -20.5 °F -9.4 °F 66% 30.53 in 10.0 mi NE 16.1 mph - N/A   Clear
8:36 AM -2.2 °F -21.5 °F -7.6 °F 78% 30.53 in 10.0 mi NNE 13.8 mph - N/A   Clear
8:56 AM -2.2 °F -22.9 °F -7.6 °F 78% 30.53 in 10.0 mi NE 16.1 mph - N/A   Scattered Clouds
9:16 AM -0.4 °F -19.2 °F -5.8 °F 78% 30.53 in 10.0 mi NE 13.8 mph - N/A   Overcast
9:36 AM -0.4 °F -19.9 °F -5.8 °F 78% 30.53 in 10.0 mi NE 15.0 mph - N/A   Mostly Cloudy
9:56 AM -0.4 °F -19.9 °F -7.6 °F 72% 30.52 in 10.0 mi NE 15.0 mph - N/A   Partly Cloudy
10:16 AM -0.4 °F -20.5 °F -7.6 °F 72% 30.51 in 10.0 mi NE 16.1 mph - N/A   Clear
10:36 AM -0.4 °F -19.2 °F -7.6 °F 72% 30.51 in 10.0 mi NE 13.8 mph - N/A   Clear
10:56 AM -0.4 °F -18.4 °F -7.6 °F 72% 30.50 in 10.0 mi NE 12.7 mph - N/A   Clear
11:16 AM -0.4 °F -19.9 °F -5.8 °F 78% 30.50 in 10.0 mi NE 15.0 mph - N/A   Clear
11:36 AM -0.4 °F -19.2 °F -11.2 °F 60% 30.50 in 10.0 mi NNE 13.8 mph - N/A   Clear
11:56 AM -0.4 °F -19.9 °F -2.2 °F 92% 30.49 in 10.0 mi NE 15.0 mph - N/A   Clear
12:16 PM -2.2 °F -22.9 °F -11.2 °F 66% 30.48 in 10.0 mi NE 16.1 mph - N/A   Clear
12:36 PM -2.2 °F -22.9 °F -5.8 °F 85% 30.47 in 10.0 mi NE 16.1 mph - N/A   Clear
12:56 PM -2.2 °F -21.5 °F -14.8 °F 55% 30.46 in 10.0 mi NE 13.8 mph - N/A   Clear
1:16 PM -2.2 °F -22.2 °F -5.8 °F 85% 30.45 in 10.0 mi NE 15.0 mph - N/A   Clear
1:36 PM -2.2 °F -24.1 °F -11.2 °F 66% 30.44 in 10.0 mi NNE 18.4 mph - N/A   Clear
1:56 PM -2.2 °F -24.1 °F -5.8 °F 85% 30.43 in 10.0 mi NNE 18.4 mph - N/A   Clear
2:16 PM -2.2 °F -24.7 °F -9.4 °F 71% 30.42 in 10.0 mi NNE 19.6 mph - N/A   Clear
2:36 PM -2.2 °F -26.2 °F -7.6 °F 78% 30.41 in 10.0 mi NNE 23.0 mph - N/A   Clear
2:56 PM -2.2 °F -24.7 °F -13.0 °F 60% 30.39 in 10.0 mi NNE 19.6 mph - N/A   Clear
3:16 PM -2.2 °F -25.7 °F -5.8 °F 85% 30.38 in 10.0 mi NNE 21.9 mph - N/A   Clear
3:36 PM -2.2 °F -24.7 °F -2.2 °F 100% 30.37 in 10.0 mi NE 19.6 mph - N/A   Clear
3:56 PM -4.0 °F -22.1 °F -14.8 °F 60% 30.38 in 10.0 mi NE 11.5 mph - N/A   Clear
4:16 PM -5.8 °F -22.4 °F -9.4 °F 84% 30.38 in 10.0 mi ENE 9.2 mph - N/A   Clear
4:36 PM -5.8 °F -26.0 °F -9.4 °F 84% 30.36 in 10.0 mi ENE 13.8 mph - N/A   Clear
4:56 PM -5.8 °F -27.5 °F -14.8 °F 65% 30.36 in 10.0 mi ENE 16.1 mph - N/A   Clear
5:16 PM -5.8 °F -26.0 °F -5.8 °F 100% 30.34 in 10.0 mi NE 13.8 mph - N/A   Clear
5:36 PM -7.6 °F -29.1 °F -14.8 °F 71% 30.34 in 10.0 mi NNE 15.0 mph - N/A   Clear
5:56 PM -7.6 °F -30.5 °F -14.8 °F 71% 30.34 in 10.0 mi NNE 17.3 mph - N/A   Clear
6:16 PM -5.8 °F -28.2 °F -9.4 °F 84% 30.32 in 8.0 mi NE 17.3 mph - N/A   Clear
6:36 PM -5.8 °F -26.0 °F -9.4 °F 84% 30.32 in 10.0 mi NE 13.8 mph - N/A   Clear
6:56 PM -5.8 °F -28.2 °F -11.2 °F 77% 30.31 in 10.0 mi NNE 17.3 mph - N/A   Clear
7:16 PM -5.8 °F -26.0 °F -9.4 °F 84% 30.31 in 10.0 mi NNE 13.8 mph - N/A   Clear
7:36 PM -7.6 °F -31.1 °F -14.8 °F 71% 30.30 in 10.0 mi NNE 18.4 mph - N/A   Clear
7:56 PM -9.4 °F -30.6 °F -14.8 °F 77% 30.31 in 2.5 mi ENE 13.8 mph - N/A   Scattered Clouds
8:16 PM -9.4 °F -34.1 °F -13.0 °F 84% 30.29 in 3.0 mi NE 19.6 mph - N/A   Mostly Cloudy
8:36 PM -7.6 °F -30.5 °F -11.2 °F 84% 30.29 in 10.0 mi NNE 17.3 mph - N/A   Partly Cloudy
8:56 PM -5.8 °F -28.2 °F -11.2 °F 77% 30.28 in 3.0 mi NE 17.3 mph - N/A   Mostly Cloudy
9:16 PM -5.8 °F -27.5 °F -7.6 °F 92% 30.28 in 9.0 mi NE 16.1 mph - N/A   Mostly Cloudy
9:36 PM -4.0 °F -25.2 °F -9.4 °F 78% 30.28 in 10.0 mi NE 16.1 mph - N/A   Partly Cloudy
9:56 PM -4.0 °F -27.0 °F -9.4 °F 78% 30.27 in 10.0 mi ENE 19.6 mph - N/A   Partly Cloudy
10:16 PM -7.6 °F -31.1 °F -13.0 °F 77% 30.27 in 10.0 mi NNE 18.4 mph - N/A   Mostly Cloudy
10:36 PM -5.8 °F -28.8 °F -11.2 °F 77% 30.26 in 10.0 mi NNE 18.4 mph - N/A   Scattered Clouds
10:56 PM -2.2 °F -21.5 °F -5.8 °F 85% 30.26 in 10.0 mi NE 13.8 mph 19.6 mph N/A   Mostly Cloudy
11:16 PM -4.0 °F -26.4 °F -11.2 °F 71% 30.25 in 10.0 mi NE 18.4 mph - N/A   Overcast
11:36 PM -5.8 °F -30.5 °F -11.2 °F 77% 30.24 in 10.0 mi NE 21.9 mph - N/A   Overcast
11:56 PM -5.8 °F -31.0 °F -7.6 °F 92% 30.24 in 10.0 mi NNE 23.0 mph - N/A   Overcast